{"data":{"norad_id":66778,"intl_designator":"2025-276DS","name":"FORESAIL-1 PRIME","alt_names":[],"object_type":"PAYLOAD","status":"ACTIVE","operator":null,"country":"FIN","launch_date":"2025-11-28","launch_site_code":"AFWTR","launch_vehicle":null,"mission":null,"orbit_class":"UNKNOWN","rcs_meters":null,"size_class":null,"mass_kg":null,"dimensions":null,"purposes":["tech_demo"],"wikipedia_slug":null,"has_3d_model":false,"image_url":null,"decayed_at":null,"tle_current":{"epoch":"2026-05-25T03:09:45.667584Z","epoch_age_seconds":57613,"freshness":"FRESH","line1":"1 66778U 25276DS  26145.13177856  .00004603  00000+0  22670-3 0  9994","line2":"2 66778  97.4205 218.8281 0002922 152.9310 207.2077 15.18454586 26908","mean_motion":15.18454586,"eccentricity":0.0002922,"inclination_deg":97.4205,"raan_deg":218.8281,"arg_perigee_deg":152.931,"mean_anomaly_deg":207.2077,"bstar":0.0002267,"rev_number":2690,"period_min":94.833260953384,"perigee_km":508.49775847664,"apogee_km":512.52348414653,"semimajor_km":6888.6476213116,"source":"CELESTRAK","updated_at":"2026-05-25T13:38:25.536557Z"}}}